Starlink 5179

operational
NORAD ID: 54102 Int'l Des: 2022-136 Owner: SPXS Country: US Constellation: starlink
LEOCIRCULAR

关于 Starlink 5179

正在加载描述...

实时位置

正在加载3D地球...

即将过境

高度历史

Altitude vs Time

uPlot chart will show altitude changes over time

两行轨道根数

1 54102U 22136BD 26062.06536725 .00003335 00000-0 22742-3 0 9990
2 54102 53.2187 3.8742 0001264 84.9978 275.1158 15.08856398185985
Epoch: Mar 3, 2026 • Age: 27 hours

当前状态

高度 549.9 km
速度 7.59 km/s
星下点 -31.42°S, 127.86°E
发射日期 Oct 20, 2022
运行时间 3.3 years
类型 internet

技术详情

分类 Payload
质量 305.00 kg
干质量 290.00 kg
总质量 305.00 kg
长度 0.20 m
直径 2.80 m
跨度 9.00 m
形状 Box + pan
制造商 SPXS
平台类型 Starlink
阶段状态 In Orbit
所有者/国家 SPXS/US

大型星座

Loading constellations...